Location: Kervinic
(48.4279°N, 4.7373°W)
Time: 10:31:42
(UTC+00:00)

Cosmos 1763 Rocket - Pass Details

Date: 09 April 2020
Orbit: 734 x 779 km, 74.0° (Epoch: 23 May)

Event Time Altitude Azimuth Distance (km) Brightness Sun altitude
Rises 21:22:32 0° 335° (NNW) 3,228 7.9 -21.4°
Reaches altitude 10° 21:24:56 10° 334° (NNW) 2,291 6.9 -21.7°
Maximum altitude 21:30:06 75° 251° (WSW) 779 3.5 -22.3°
Enters shadow 21:31:32 47° 178° (S) 980 3.7 -22.5°
